User: anonymous   Login
Location: Navarre
(52.9016°N, 113.4144°W)
Time: 00:34:42
(UTC+00:00)
Language:

Tiangong - Orbit

View from above orbital plane
View from above orbital plane
View from above satellite
View from above satellite

Ground track
Ground track

The orbit data is extracted from the following two-line orbital elements,

1 48274U 21035A   23268.72272072 -.00023223  00000-0 -24522-3 0  9998
2 48274  41.4743 264.1672 0007963 114.9742  53.3672 15.62975770137546
Epoch (UTC): 25 September 2023 17:20:43
Eccentricity: 0.0007963
inclination: 41.4743°
perigee height: 373 km
apogee height: 384 km
right ascension of ascending node: 264.1672°
argument of perigee: 114.9742°
revolutions per day: 15.62975770
mean anomaly at epoch: 53.3672°
orbit number at epoch: 13754

The dashed part of the orbit path shows where the satellite is in the earth's shadow,  

DLR